Home   Weather   Knarrevik/Straume   Past weeks

Flag for Norway Past Weather in Knarrevik/Straume, Norway — Yesterday and Last 2 Weeks

Now
54 °F

Rain. Low clouds.


Feels Like: 50 °F
Forecast: 52 / 57 °F
Wind: 15 mph from South

Location: Bergen / Flesland

Current Time: Sep 27, 2016 at 5:32:44 PM

Latest Report: Sep 27, 2016 at 5:00 PM


Visibility: 3 mi

Pressure: 29.64 "Hg

Humidity: 90%

Dew Point: 51 °F

Location of Knarrevik/StraumeLocation

Past Weather in Knarrevik/Straume — Graph

°F

Knarrevik/Straume Temperature Yesterday

Maximum temperature yesterday: 59 °F (at 3:00 PM)
Minimum temperature yesterday: 53 °F (at 9:00 PM)
Average temperature yesterday: 55 °F

High & Low Weather Summary for the Past Weeks

 TemperatureHumidityPressure
High76 °F (Sep 16, 3:00 PM)98% (Sep 15, 4:00 AM)30.19 "Hg (Sep 15, 4:00 AM)
Low50 °F (Sep 27, 3:00 AM)45% (Sep 25, 6:00 PM)29.72 "Hg (Sep 27, 4:00 PM)
Average61 °F80%30.06 "Hg
* Reported Sep 12 4:00 PM — Sep 27 4:00 PM, Knarrevik/Straume, Weather by CustomWeather, © 2016

Note: Actual official high and low records may vary slightly from our data, if they occured in-between our weather recording intervals... More about our weather records

Advertising

Knarrevik/Straume Weather History for the Previous 24 Hours

Scroll right to see more
 ConditionsComfort  
Time TempWeatherWind HumidityBarometerVisibility
4:00 PM
Tue, Sep 27
56 °FRain. Overcast.18 mph87%29.72 "Hg3 mi
3:00 PM57 °FRain showers. Low clouds.16 mph85%29.79 "Hg6 mi
2:00 PM57 °FLots of rain. Overcast.16 mph87%29.86 "Hg5 mi
1:00 PM56 °FOvercast.10 mph87%29.91 "Hg22 mi
12:00 PM55 °FRain showers. Overcast.13 mph88%29.94 "Hg7 mi
11:00 AM54 °FRain showers. Overcast.9 mph87%29.97 "Hg22 mi
10:00 AM54 °FRain showers. Overcast.10 mph89%30.02 "Hg16 mi
9:00 AM53 °FLots of rain. Overcast.7 mph91%30.04 "Hg4 mi
8:00 AM52 °FRain. Overcast.8 mph91%30.05 "Hg5 mi
7:00 AM52 °FRain. Overcast.7 mph91%30.07 "Hg3 mi
6:00 AM52 °FRain. Overcast.7 mph91%30.10 "Hg7 mi
5:00 AM52 °FLots of rain. Overcast.6 mph92%30.12 "Hg6 mi
4:00 AM51 °FRain. Overcast.3 mph92%30.14 "Hg16 mi
3:00 AM50 °FRain showers. Overcast.5 mph91%30.16 "Hg11 mi
2:00 AM51 °FLight rain. Low clouds.8 mph83%30.16 "Hg2 mi
1:00 AM54 °FOvercast.5 mph83%30.16 "Hg28 mi
12:00 AM54 °FPassing clouds.5 mph83%30.17 "Hg31 mi
11:00 PM
Mon, Sep 26
53 °FRain showers. Overcast.2 mph88%30.18 "Hg25 mi
10:00 PM54 °FPassing clouds.5 mph86%30.18 "Hg22 mi
9:00 PM53 °FRain showers. Overcast.3 mph89%30.16 "Hg16 mi
8:00 PM54 °FPassing clouds.2 mph87%30.16 "Hg19 mi
7:00 PM55 °FOvercast.5 mph85%30.16 "Hg19 mi
6:00 PM56 °FOvercast.6 mph84%30.16 "Hg17 mi
Weather by CustomWeather, © 2016

See weather overviewHow to use our weather pages